Погода в Перемоге

Украина / Киевская область     50°29′52″N   31°15′32″E
темп.,
°C
ветер,
м/с
пор.,
м/с
влажн.,
%
обл.,
%
осадки,
мм/ч
давл.,
гПа
погр.,
м
29 июня, ср
ср2900:00+21в356857 0.1 101894
03:00+20всв11745 0.4 101811
06:00+20св117585 0.0 101827
09:00+25св225068 0.1 1018383
12:00+30вюв23375 0.0 10171373
15:00+32юв323347 0.0 10162694
18:00+29зсз1346100 0.1 1015111
21:00+19ссв4896100 4.4 1016227
30 июня, чт
чт3000:00+18юв2496100 1.1 1017119
03:00+17в119674 1.1 101614
06:00+18в239515 0.1 1016104
09:00+22в227753 0.1 1016675
12:00+24в546877 0.4 10161094
15:00+25в556551 1.3 10161150
18:00+25в565423 0.0 10161229
21:00+20вюв36736 0.0 1017122
1 июля, пт
пт100:00+17юв22824 0.0 101925
03:00+16в11870 0.0 101911
06:00+16св23850 0.0 102062
09:00+22св35610 0.0 1020758
12:00+26всв45380 0.0 10201661
15:00+27всв55350 0.0 10192013
18:00+26всв44400 0.0 10191993
21:00+21в336075 0.0 102036
2 июля, сб
сб200:00+18юв33643 0.0 102140
03:00+17зюз11675 0.0 102211
06:00+17с11684 0.0 102214
09:00+23ссв22502 0.0 1022496
12:00+27с22394 0.0 10221892
15:00+29ссз32341 0.0 10212372
18:00+29ссз33353 0.0 10202297
21:00+23св2257100 0.0 102013
3 июля, вс
вс300:00+20ююз1265100 0.0 102111
03:00+19ююз116829 0.0 102011
06:00+19зюз11685 0.0 102011
09:00+26з224649 0.0 1019441
12:00+30зсз33316 0.0 10182055
15:00+32сз34295 0.0 10172536
18:00+31ссз443318 0.0 10162140
21:00+23сз497449 1.0 1017283